Location: Piotrkow Trybunalski
(51.4000°N, 19.6830°E)
Time: 15:25:58
(UTC+01:00)

ISS - Pass Details

Date: 31 January 2020
Orbit: 415 x 422 km, 51.6° (Epoch: 26 February)

Event Time Altitude Azimuth Distance (km) Brightness Sun altitude
Rises 19:16:56 0° 284° (WNW) 2,381 1.4 -26.3°
Reaches altitude 10° 19:19:04 10° 279° (W) 1,513 0.1 -26.6°
Enters shadow 19:20:43 25° 268° (W) 888 -1.5 -26.9°
